Location: Clanezzo
(45.7500°N, 9.6000°E)
Time: 13:56:58
(UTC+00:00)

PSLV R/B - Pass Details

Date: 12 May 2021
Orbit: 596 x 702 km, 97.9° (Epoch: 19 June)

Event Time Altitude Azimuth Distance (km) Brightness Sun altitude
Rises 23:21:30 0° 17° (NNE) 2,943 8.2 -25.9°
Reaches altitude 10° 23:23:47 10° 22° (NNE) 2,014 7.1 -25.9°
Enters shadow 23:27:28 49° 68° (ENE) 798 4.2 -25.8°
